www.pogodaiklimat.ru

Погода и климат >> Архив погоды >> Россия >> Свердловская область >> Камышлов


ПОГОДА в Камышлове

  • Прогноз погоды в Камышлове
  • Монитор погоды в Камышлове

АРХИВ ПОГОДЫ в Камышлове

Время (UTC), дата Ветер
(напр.,м/с)
 
Видим.   Явления Облачность Т
(С)
Тd
(С)
f
(%)
Тe
(С)
Тes
(С)
Комфортность P
(гПа)
Po
(гПа)
Тmin
(С)
Tmax
(С)
R
(мм)
R24
(мм)
S
(см)
00 18.08 ЮВ 3 20 км ясно +17.3 +15.4 89 +17 +17 1018.0 1003.0
03 18.08 ЮВ 2 20 км 8/0
[Ac trans Ci fib]
+19.0 +16.3 84 +21 +23 комфорт 1018.0 1003.2 +16.9
06 18.08 З 3 20 км 10/10 600 м
[Sc]
+20.8 +17.0 79 +25 +25 комфорт 1019.1 1004.3
09 18.08 СЗ 4 20 км 10/8 600 м
[Cb cap Ac und]
+21.8 +16.9 74 +26 +26 душно 1019.6 1004.8
12 18.08 СВ 3 20 км 10/8 600 м
[Cb cap Ac und]
+18.7 +15.5 82 +20 +20 1021.1 1006.2
15 18.08 В 3 20 км 10/10 600 м
[Sc]
+16.7 +13.6 82 +16 +16 1022.3 1007.3 +22.9
18 18.08 С 2 4000 м в посл. час ливневой дождь 9/9 600 м
[Cb cap]
+15.3 +13.9 91 +15 +15 1024.1 1008.9
21 18.08 штиль 0 4000 м 8/8 600 м
[Sc diur, vesp]
+15.2 +13.8 91 +15 +15 1024.9 1009.8
00 19.08 СЗ 1 4000 м 9/9 600 м
[Sc]
+14.4 +13.2 92 +15 +15 1025.8 1010.6
03 19.08 СЗ 1 20 км 8/6 600 м
[Sc Ac trans]
+15.5 +13.7 89 +16 +17 1026.8 1011.6 +13.8 2
06 19.08 СЗ 1 50 км 10/0
[Ac As]
+18.8 +13.8 73 +21 +24 комфорт 1027.1 1012.1
09 19.08 СЗ 1 4000 м слаб. ливневой дождь 8/8 600 м
[Cb cap]
+19.8 +14.5 71 +23 +25 комфорт 1026.8 1011.9
12 19.08 СВ 1 50 км {ливн. осадки} 8/8 600 м
[Cb cap]
+20.9 +11.7 56 +24 +25 комфорт 1026.3 1011.4
15 19.08 СВ 1 20 км 10/10 600 м
[Sc]
+18.6 +14.0 75 +20 +20 1026.3 1011.3 +22.5 0.3
18 19.08 штиль 0 4000 м слаб. ливневой дождь 10/10 600 м
[Cb cap]
+16.4 +14.4 88 +16 +16 1026.4 1011.3
21 19.08 В 2 4000 м слаб. дождь 10/0 300 м
[As op]
+15.8 +14.4 91 +16 +16 1025.6 1010.5
00 20.08 ЮВ 1 4000 м слаб. дождь 10/0 300 м
[As op]
+15.2 +13.8 91 +16 +16 1025.1 1009.9
03 20.08 ЮВ 1 4000 м слаб. дождь 10/0 300 м
[As op]
+15.6 +14.3 92 +16 +17 1024.4 1009.3 +15.1 2
06 20.08 ЮВ 4 4000 м слаб. дождь 10/10 300 м
[Frnb Ns]
+16.2 +14.8 91 +15 +15 1022.5 1007.4
09 20.08 В 3 20 км {дождь} 10/10 600 м
[Sc]
+17.6 +15.5 87 +18 +18 1020.7 1005.7
12 20.08 В 4 50 км {дождь} 10/10 600 м
[Sc]
+18.0 +15.4 85 +18 +18 1019.3 1004.4
15 20.08 В 3 20 км 10/10 600 м
[Sc]
+16.9 +15.0 89 +17 +17 1018.7 1003.8 +18.0 2
18 20.08 В 3 4000 м 10/10 600 м
[Sc]
+16.0 +14.6 91 +16 +16 1018.5 1003.4
21 20.08 В 4 4000 м {ливн. осадки} 10/10 600 м
[Sc]
+15.2 +13.7 91 +14 +14 1018.3 1003.2
00 21.08 СВ 2 4000 м {ливн. осадки} 8/5 600 м
[Sc Ac trans]
+13.4 +11.5 88 +13 +13 1018.4 1003.2
03 21.08 С 3 50 км 8/3 600 м
[Sc Ac trans]
+14.3 +12.2 87 +13 +14 1019.2 1004.1 +13.2
06 21.08 СВ 4 50 км ясно +19.1 +11.1 60 +20 +26 1019.8 1004.9 +13.9
09 21.08 СВ 5 50 км 6/6 600 м
[Cu med, cong]
+19.9 +10.6 55 +21 +23 комфорт 1020.4 1005.6
12 21.08 С 2 50 км 8/8 600 м
[Cb cap]
+18.0 +11.1 64 +19 +19 1021.3 1006.3
15 21.08 СЗ 2 20 км 8/8 600 м
[Sc]
+15.5 +11.7 78 +15 +15 1021.1 1006.0 +20.3
18 21.08 З 1 4000 м 6/6 600 м
[Sc]
+12.9 +10.9 88 +13 +13 1021.7 1006.5
21 21.08 С 1 4000 м ясно +13.5 +11.0 85 +14 +14 1020.6 1005.4
00 22.08 СЗ 1 4000 м 10/10 600 м
[Sc]
+12.1 +10.4 89 +12 +12 1021.3 1006.0
03 22.08 СЗ 2 50 км ясно +15.1 +10.5 74 +15 +17 1021.3 1006.2 +12.1
06 22.08 С 3 50 км 4/0
[Ci fib]
+20.4 +10.8 54 +22 +29 комфорт 1021.2 1006.3
09 22.08 СЗ 3 50 км 8/8 600 м
[Cu med, cong]
+21.6 +10.7 50 +23 +25 комфорт 1020.7 1005.9
12 22.08 СЗ 3 50 км 8/1 600 м
[Cu hum Cs]
+22.4 +11.4 50 +25 +27 комфорт 1019.8 1005.1
15 22.08 штиль 0 20 км 8/0
[Cs]
+19.0 +12.2 65 +20 +20 1019.9 1005.0 +23.2
18 22.08 штиль 0 4000 м ясно +15.0 +12.1 83 +15 +15 1019.8 1004.7
21 22.08 штиль 0 4000 м ясно +12.5 +11.3 92 +12 +12 1020.0 1004.8
00 23.08 З 1 4000 м 10/10 600 м
[Sc]
+12.1 +10.5 90 +12 +12 1019.2 1003.9
03 23.08 ЮЗ 2 20 км 4/0
[Ac trans Ci fib]
+15.0 +11.9 82 +15 +16 1018.6 1003.5 +11.8
06 23.08 З 5 50 км 8/0
[Ac trans Ci sp]
+23.6 +13.5 53 +26 +29 жарко 1017.1 1002.5
09 23.08 ЮЗ 5
{10}
50 км 3/0
[Ci sp]
+26.0 +13.4 46 +28 +33 жарко 1015.4 1000.9
12 23.08 З 5-11
{11}
4000 м слаб. ливневой дождь 8/8 600 м
[Cb cap]
+24.8 +14.0 51 +27 +28 жарко 1014.0 999.5
15 23.08 З 3
{14}
4000 м дымка {ливн. осадки} 8/8 600 м
[Cb cap]
+19.7 +16.8 83 +22 +22 комфорт 1014.8 1000.0 +26.6 2
18 23.08 СЗ 3 4000 м {ливн. осадки} 9/9 600 м
[Sc]
+16.3 +11.9 75 +16 +16 1016.4 1001.4
21 23.08 З 3 4000 м ясно +12.9 +10.4 85 +11 +11 1016.8 1001.7
00 24.08 З 3 4000 м ясно +11.2 +8.6 84 +9 +9 1017.4 1002.1
03 24.08 З 4 20 км ясно +13.5 +9.7 78 +12 +13 1018.3 1003.2 +10.9
06 24.08 СЗ 6-10
{11}
50 км 6/4 600 м
[Cu hum Ci fib]
+17.4 +8.9 57 +17 +19 1018.3 1003.3
09 24.08 СЗ 6-10
{11}
50 км 8/8 600 м
[Cu med, cong]
+20.1 +8.1 46 +21 +22 комфорт 1017.8 1003.0
12 24.08 СЗ 5
{11}
50 км 6/6 600 м
[Cu med, cong]
+19.9 +8.0 46 +21 +21 комфорт 1018.4 1003.5
15 24.08 З 1
{10}
20 км 3/3 600 м
[Cu med, cong]
+16.1 +8.6 61 +17 +17 1018.9 1003.9 +21.3
18 24.08 З 1 4000 м ясно +11.6 +8.7 82 +11 +11 1019.2 1003.9
21 24.08 ЮЗ 1 4000 м ясно +9.0 +7.3 89 +8 +8 1018.7 1003.3

 

Местоположение метеостанции Камышлов (Свердловская область, Россия): широта 56.85 долгота 62.72 высота над уровнем моря 127 м.

В архиве по умолчанию представлена погода в Камышлове за последнюю неделю. Архивные данные за месяц целиком и за предыдущие месяцы, начиная с января 2011 года, Вы можете получить, выбрав интересующий диапазон дат из раскрывающегося списка и нажав кнопку "Ввод!".


*Определитесь, кто Вы:
робот инопланетянин человек

Внимание! Время в таблицах - всемирное. Для получения местного времени необходимо прибавить поправку, которая равна 5 ч.

Смотрите также архив погоды в соседних городах и на ближайших метеорологических станциях:

Погода в Бутке (Свердловская область, Россия) (66 км)
Погода в Далматово (Курганская область, Россия) (66 км)
Погода в Каменск-Уральском (Свердловская область, Россия) (70 км)
Погода в Артемовском (Свердловская область, Россия) (75 км)
Погода в Ирбите (Свердловская область, Россия) (87 км)
Погода в Верхнем Дуброво (Свердловская область, Россия) (101 км)
Погода в Шадринске (Курганская область, Россия) (104 км)
Погода в Тугулыме (Свердловская область, Россия) (121 км)
Погода в Сысерти (Свердловская область, Россия) (122 км)
Погода в Шатрово (Курганская область, Россия) (123 км)

Пояснения к столбцам:

Ветер - указаны скорость ветра в м/с - средняя за 10 мин, порывы в срок и между сроками (в фигурных скобках) и направление, откуда дует ветер: С - северный, СВ - северо-восточный, В - восточный, ЮВ - юго-восточный, Ю - южный, ЮЗ - юго-западный, З - западный, СЗ - северо-западный.
Видимость - горизонтальная дальность видимости в метрах или километрах. При видимости от 1 до 10 км при отсутствии осадков обычно наблюдается дымка, при ухудшении видимости до 1 км и менее - туман. В сухую погоду видимость может ухудшаться дымом, пылью или мглою.
Явления - указаны атмосферные явления, наблюдавшиеся в срок или в последний час перед сроком; фигурными скобками обозначены явления, наблюдавшиеся между сроками (за 1-3 часа до срока); квадратными скобками обозначены град или гололедные отложения с указанием их диаметра в мм.
Облачность - указаны через наклонную черту общая и нижняя облачность в баллах и высота нижней границы облаков в метрах; квадратными скобками обозначены формы облаков: Ci - перистые, Cs - перисто-слоистые, Cc - перисто-кучевые, Ac - высококучевые, As - высокослоистые, Sc - слоисто-кучевые, Ns - слоисто-дождевые, Cu - кучевые, Cb - кучево-дождевые. Подробнее классификацию облаков см. в Атласе облаков (PDF).
T - Температура воздуха - температура, измеренная на высоте 2 м над землей.
Td - Температура точки росы - температура, при понижении до которой содержащийся в воздухе водяной пар достигнет насыщения.
f - Относительная влажность воздуха - влажноcть воздуха, измеренная на высоте 2 м над землей.
Te - Эффективная температура - температура, которую ощущает одетый по сезону человек в тени. Характеристика душности погоды. При расчете учитывается влияние влажности воздуха и скорости ветра на теплоощущения человека.
Tes - Эффективная температура на солнце - температура, которую ощущает человек, с поправкой на солнечный нагрев. Характеристика знойности погоды. Зависит от высоты солнца над горизонтом, облачности и скорости ветра. Ночью, в пасмурную погоду, а также при ветре 12 м/с и более поправка равна нулю.
P - Атмосферное давление - приведенное к уровню моря атмосферное давление.
Po - Атмосферное давление - измеренное на уровне метеостанции атмосферное давление.
Tmin - Минимальная температура - минимум температуры воздуха на высоте 2 м над землей.
Tmax - Максимальная температура - максимум температуры воздуха на высоте 2 м над землей.
R - Количество осадков - Количество выпавших осадков за период времени, мм. При наведении курсора мыши на число - период времени, за который выпало указанное количество осадков.
R24 - Количество осадков - Количество выпавших осадков за 24 часа, мм.
S - Снежный покров - Высота снежного покрова, см. При наведении курсора мыши на число - состояние снежного покрова и степень покрытия местности в баллах.